• In Schweiz
  • Länderverzeichnis
  • Für 7 Tage
  • Wassertemperatur
  • Satellitenkarten
  • Wetterkarte
  • Widgets
  • user-avatar
    Anmelden

    Stündliche Wetter Alexandria

    Heute, 21 Juni, Donnerstag

    Zeit Temperatur Niederschläge Wind Luftdruck Luftfeuchtigkeit
    00:00 +27°C° 0 mm 3 m/S 761 mmHg 64%
    01:00 +27°C° 0 mm 3 m/S 761 mmHg 65%
    02:00 +26°C° 0 mm 2 m/S 760 mmHg 65%
    03:00 +26°C° 0 mm 2 m/S 761 mmHg 66%
    04:00 +26°C° 0 mm 2 m/S 761 mmHg 67%
    05:00 +25°C° 0 mm 2 m/S 761 mmHg 67%
    06:00 +27°C° 0 mm 2 m/S 761 mmHg 61%
    07:00 +28°C° 0 mm 2 m/S 761 mmHg 54%
    08:00 +30°C° 0 mm 2 m/S 761 mmHg 48%
    09:00 +31°C° 0 mm 2 m/S 761 mmHg 43%
    10:00 +34°C° 0 mm 2 m/S 761 mmHg 38%
    11:00 +36°C° 0 mm 2 m/S 761 mmHg 33%
    12:00 +36°C° 0 mm 3 m/S 761 mmHg 31%
    13:00 +37°C° 0 mm 4 m/S 760 mmHg 30%
    14:00 +39°C° 0 mm 5 m/S 760 mmHg 29%
    15:00 +37°C° 0 mm 5 m/S 760 mmHg 31%
    16:00 +36°C° 0 mm 5 m/S 760 mmHg 33%
    17:00 +35°C° 0 mm 5 m/S 759 mmHg 35%
    18:00 +34°C° 0 mm 5 m/S 760 mmHg 40%
    19:00 +32°C° 0 mm 5 m/S 760 mmHg 45%
    20:00 +30°C° 0 mm 4 m/S 760 mmHg 49%
    21:00 +29°C° 0 mm 4 m/S 760 mmHg 52%
    22:00 +29°C° 0 mm 5 m/S 760 mmHg 54%
    23:00 +28°C° 0 mm 5 m/S 760 mmHg 57%

    Morgen, 22 Juni, Freitag

    Zeit Temperatur Niederschläge Wind Luftdruck Luftfeuchtigkeit
    00:00 +28°C° 0 mm 5 m/S 760 mmHg 58%
    01:00 +28°C° 0 mm 4 m/S 759 mmHg 59%
    02:00 +27°C° 0 mm 4 m/S 759 mmHg 60%
    03:00 +27°C° 0 mm 3 m/S 759 mmHg 61%
    04:00 +27°C° 0 mm 3 m/S 759 mmHg 62%
    05:00 +26°C° 0 mm 3 m/S 759 mmHg 62%
    06:00 +28°C° 0 mm 2 m/S 759 mmHg 57%
    07:00 +29°C° 0 mm 2 m/S 759 mmHg 51%
    08:00 +31°C° 0 mm 2 m/S 760 mmHg 46%
    09:00 +33°C° 0 mm 3 m/S 760 mmHg 43%
    10:00 +35°C° 0 mm 4 m/S 760 mmHg 39%
    11:00 +36°C° 0 mm 4 m/S 760 mmHg 36%
    12:00 +36°C° 0 mm 5 m/S 759 mmHg 37%
    13:00 +38°C° 0 mm 6 m/S 759 mmHg 38%
    14:00 +38°C° 0 mm 6 m/S 759 mmHg 39%
    15:00 +36°C° 0 mm 7 m/S 759 mmHg 43%
    16:00 +34°C° 0 mm 7 m/S 758 mmHg 47%
    17:00 +33°C° 0 mm 7 m/S 758 mmHg 51%
    18:00 +32°C° 0 mm 7 m/S 758 mmHg 56%
    19:00 +30°C° 0 mm 6 m/S 758 mmHg 61%
    20:00 +28°C° 0 mm 6 m/S 759 mmHg 66%
    21:00 +28°C° 0 mm 5 m/S 759 mmHg 68%
    22:00 +28°C° 0 mm 4 m/S 759 mmHg 70%
    23:00 +27°C° 0 mm 4 m/S 759 mmHg 71%

    übermorgen, 23 Juni, Samstag

    Zeit Temperatur Niederschläge Wind Luftdruck Luftfeuchtigkeit
    00:00 +27°C° 0 mm 3 m/S 759 mmHg 72%
    01:00 +27°C° 0 mm 2 m/S 759 mmHg 73%
    02:00 +26°C° 0 mm 2 m/S 759 mmHg 75%
    03:00 +26°C° 0 mm 1 m/S 759 mmHg 75%
    04:00 +26°C° 0 mm 1 m/S 758 mmHg 76%
    05:00 +25°C° 0 mm 1 m/S 758 mmHg 77%
    06:00 +27°C° 0 mm 1 m/S 758 mmHg 70%
    07:00 +28°C° 0 mm 1 m/S 759 mmHg 63%
    08:00 +29°C° 0 mm 2 m/S 759 mmHg 56%
    09:00 +30°C° 0 mm 2 m/S 759 mmHg 50%
    10:00 +33°C° 0 mm 3 m/S 759 mmHg 44%
    11:00 +34°C° 0 mm 4 m/S 759 mmHg 39%
    12:00 +34°C° 0 mm 5 m/S 759 mmHg 38%
    13:00 +34°C° 0 mm 5 m/S 758 mmHg 38%
    14:00 +35°C° 0 mm 5 m/S 758 mmHg 37%
    15:00 +34°C° 0 mm 5 m/S 758 mmHg 40%
    16:00 +33°C° 0 mm 5 m/S 758 mmHg 43%
    17:00 +32°C° 0 mm 5 m/S 757 mmHg 46%
    18:00 +30°C° 0 mm 5 m/S 758 mmHg 53%
    19:00 +29°C° 0 mm 5 m/S 758 mmHg 60%
    20:00 +28°C° 0 mm 4 m/S 758 mmHg 66%
    21:00 +27°C° 0 mm 4 m/S 758 mmHg 69%
    22:00 +27°C° 0 mm 3 m/S 758 mmHg 72%
    23:00 +26°C° 0 mm 3 m/S 759 mmHg 75%

    24 Juni, Sonntag

    Zeit Temperatur Niederschläge Wind Luftdruck Luftfeuchtigkeit
    00:00 +26°C° 0 mm 3 m/S 758 mmHg 77%
    01:00 +26°C° 0 mm 3 m/S 758 mmHg 78%
    02:00 +26°C° 0 mm 3 m/S 758 mmHg 80%
    03:00 +25°C° 0 mm 2 m/S 758 mmHg 81%
    04:00 +25°C° 0 mm 2 m/S 757 mmHg 81%
    05:00 +25°C° 0 mm 2 m/S 757 mmHg 82%
    06:00 +26°C° 0 mm 2 m/S 758 mmHg 76%
    07:00 +27°C° 0 mm 2 m/S 758 mmHg 70%
    08:00 +28°C° 0 mm 2 m/S 758 mmHg 64%
    09:00 +29°C° 0 mm 2 m/S 758 mmHg 58%
    10:00 +31°C° 0 mm 3 m/S 758 mmHg 52%
    11:00 +33°C° 0 mm 3 m/S 758 mmHg 46%
    12:00 +33°C° 0 mm 4 m/S 758 mmHg 45%
    13:00 +34°C° 0 mm 5 m/S 757 mmHg 45%
    14:00 +34°C° 0 mm 5 m/S 757 mmHg 44%
    15:00 +33°C° 0 mm 5 m/S 757 mmHg 47%
    16:00 +33°C° 0 mm 6 m/S 757 mmHg 51%
    17:00 +32°C° 0 mm 6 m/S 757 mmHg 54%
    18:00 +30°C° 0 mm 5 m/S 757 mmHg 60%
    19:00 +29°C° 0 mm 5 m/S 758 mmHg 66%
    20:00 +28°C° 0 mm 4 m/S 758 mmHg 72%
    21:00 +27°C° 0 mm 4 m/S 758 mmHg 75%
    22:00 +27°C° 0 mm 3 m/S 758 mmHg 77%
    23:00 +27°C° 0 mm 3 m/S 758 mmHg 80%

    25 Juni, Montag

    Zeit Temperatur Niederschläge Wind Luftdruck Luftfeuchtigkeit
    00:00 +26°C° 0 mm 3 m/S 758 mmHg 81%
    01:00 +26°C° 0 mm 2 m/S 758 mmHg 82%
    02:00 +26°C° 0 mm 2 m/S 757 mmHg 84%
    03:00 +25°C° 0 mm 2 m/S 757 mmHg 84%
    04:00 +25°C° 0 mm 2 m/S 757 mmHg 85%
    05:00 +25°C° 0 mm 2 m/S 757 mmHg 86%
    06:00 +26°C° 0 mm 2 m/S 757 mmHg 79%
    07:00 +27°C° 0 mm 2 m/S 758 mmHg 71%
    08:00 +28°C° 0 mm 2 m/S 758 mmHg 64%
    09:00 +30°C° 0 mm 2 m/S 758 mmHg 57%
    10:00 +31°C° 0 mm 3 m/S 758 mmHg 51%
    11:00 +34°C° 0 mm 3 m/S 758 mmHg 44%
    12:00 +34°C° 0 mm 4 m/S 757 mmHg 44%
    13:00 +34°C° 0 mm 5 m/S 757 mmHg 44%
    14:00 +35°C° 0 mm 5 m/S 757 mmHg 43%
    15:00 +34°C° 0 mm 6 m/S 757 mmHg 46%
    16:00 +33°C° 0 mm 6 m/S 757 mmHg 48%
    17:00 +32°C° 0 mm 6 m/S 757 mmHg 51%
    18:00 +30°C° 0 mm 5 m/S 757 mmHg 57%
    19:00 +29°C° 0 mm 5 m/S 758 mmHg 64%
    20:00 +28°C° 0 mm 4 m/S 758 mmHg 70%
    21:00 +27°C° 0 mm 4 m/S 758 mmHg 72%
    22:00 +27°C° 0 mm 3 m/S 758 mmHg 75%
    23:00 +27°C° 0 mm 3 m/S 758 mmHg 77%

    26 Juni, Dienstag

    Zeit Temperatur Niederschläge Wind Luftdruck Luftfeuchtigkeit
    00:00 +26°C° 0 mm 3 m/S 758 mmHg 79%
    01:00 +26°C° 0 mm 2 m/S 758 mmHg 80%
    02:00 +26°C° 0 mm 2 m/S 757 mmHg 82%
    03:00 +25°C° 0 mm 2 m/S 757 mmHg 83%
    04:00 +25°C° 0 mm 1 m/S 757 mmHg 84%
    05:00 +25°C° 0 mm 1 m/S 757 mmHg 85%
    06:00 +26°C° 0 mm 1 m/S 757 mmHg 77%
    07:00 +27°C° 0 mm 1 m/S 757 mmHg 69%
    08:00 +29°C° 0 mm 1 m/S 757 mmHg 61%
    09:00 +30°C° 0 mm 2 m/S 757 mmHg 52%
    10:00 +32°C° 0 mm 2 m/S 757 mmHg 43%
    11:00 +35°C° 0 mm 2 m/S 757 mmHg 34%
    12:00 +35°C° 0 mm 3 m/S 757 mmHg 34%
    13:00 +36°C° 0 mm 4 m/S 757 mmHg 33%
    14:00 +36°C° 0 mm 5 m/S 756 mmHg 33%
    15:00 +36°C° 0 mm 5 m/S 756 mmHg 36%
    16:00 +35°C° 0 mm 5 m/S 756 mmHg 38%
    17:00 +34°C° 0 mm 5 m/S 756 mmHg 41%
    18:00 +32°C° 0 mm 4 m/S 757 mmHg 48%
    19:00 +30°C° 0 mm 4 m/S 757 mmHg 55%
    20:00 +29°C° 0 mm 3 m/S 757 mmHg 61%
    21:00 +28°C° 0 mm 3 m/S 757 mmHg 64%
    22:00 +28°C° 0 mm 2 m/S 757 mmHg 67%
    23:00 +27°C° 0 mm 2 m/S 757 mmHg 70%
    Mehr zeigen